Powrót do katalogu

STARLINK-32483

AktywnyŁącznośćVLEO
NORAD 61856·PAYLOAD·🇺🇸 United States

Wystrzelony Nov 7, 2024 z Cape Canaveral Space Force Station

Loading…

Następne Przeloty (najbliższe 24 godziny)

TLE

ŚwieżeSource: CelesTrak SupGP

Epoka: Sep 14, 2026, 13:48 UTC

1 61856C 24202M   26257.57548611  .00017081  00000+0  61850-3 0  2571
2 61856  42.9999 251.1398 0001266 273.4120 195.4719 15.27578425    16

Śledź STARLINK-32483 w czasie rzeczywistym z AllMySat

Download on the App Store